Flag for Uruguay Weather past 2 weeks in Minas, Uruguay

Now
59 °F

Clear.


Feels Like: 60 °F
Forecast: 56 / 80 °F
Wind: 3 mph from Northeast

Location: Capitan Corbeta

Current Time: Jan 31, 2015 at 4:29:57 AM

Latest Report: Jan 31, 2015 at 4:00 AM


Visibility: 10 mi

Pressure: 30.12 "Hg

Humidity: 82%

Dew point: 54 °F

Location of MinasLocation

Historic Weather in Minas — Graph

°F

Minas temperature yesterday

Maximum temperature yesterday: 70 °F (at 1:00 PM)
Minimum temperature yesterday: 55 °F (at 8:00 AM)
Average temperature yesterday: 64 °F

Past Weeks' High & Low Weather Summary

 TemperatureHumidityPressure
High95 °F (Jan 27, 2:00 PM)94% (Jan 16, 4:00 AM)30.24 "Hg (Jan 16, 4:00 AM)
Low54 °F (Jan 21, 6:00 AM)39% (Jan 18, 4:00 PM)29.71 "Hg (Jan 27, 3:00 PM)
Average71 °F70%29.96 "Hg
* Reported Jan 16 3:00 AM — Jan 31 3:00 AM, Minas, Weather by CustomWeather, © 2014

Note: Actual official high and low records may vary slightly from our data, if they occured in-between our weather recording intervals... More about our weather records

Advertising

Minas weather history for previous 24 hours

 ConditionsComfort  
Time TempWeatherWind HumidityBarometerVisibility
3:00 AM
Jan 31
59 °FClear.3 mph82%30.12 "Hg10 mi
2:00 AM59 °FClear.6 mph82%30.15 "Hg10 mi
1:00 AM61 °FClear.7 mph77%30.12 "Hg10 mi
12:00 AM63 °FClear.9 mph73%30.12 "Hg10 mi
11:00 PM
Jan 30
63 °FClear.7 mph68%30.12 "Hg10 mi
10:00 PM63 °FClear.7 mph68%30.12 "Hg10 mi
9:00 PM63 °FClear.6 mph68%30.12 "Hg10 mi
8:00 PM68 °FSunny.10 mph53%30.09 "Hg10 mi
7:00 PM70 °FPassing clouds.17 mph53%30.12 "HgN/A
6:00 PM70 °FPassing clouds.17 mph53%30.12 "HgN/A
5:00 PM70 °FPassing clouds.17 mph53%30.12 "HgN/A
4:00 PM70 °FPassing clouds.16 mph53%30.12 "HgN/A
3:00 PM70 °FPassing clouds.14 mph57%30.15 "HgN/A
2:00 PM70 °FPassing clouds.7 mph57%30.18 "HgN/A
1:00 PM70 °FPassing clouds.9 mph60%30.18 "HgN/A
12:00 PM66 °FPassing clouds.6 mph56%30.18 "HgN/A
11:00 AM64 °FScattered clouds.5 mph64%30.18 "HgN/A
10:00 AM63 °FScattered clouds.3 mph68%30.18 "HgN/A
9:00 AM59 °FPassing clouds.No wind88%30.15 "HgN/A
8:00 AM55 °FPassing clouds.3 mph88%30.12 "HgN/A
6:00 AM57 °FPassing clouds.3 mph72%30.09 "HgN/A
5:00 AM59 °FPassing clouds.5 mph68%30.09 "HgN/A
Weather by CustomWeather, © 2014

See weather overviewHow to use our weather pages